Change the Weather History Date:

Monday, July 23, 2012

  Actual Average Record
Temperature  
Mean Temperature 80 °F -  
Max Temperature 96 °F 94 °F 95 °F (2014)
Min Temperature 64 °F 62 °F 66 °F (2013)
Cooling Degree Days 15    
Growing Degree Days 30 (Base 50)    
Moisture  
Dew Point 57 °F    
Average Humidity 52    
Maximum Humidity 78    
Minimum Humidity 18    
Precipitation  
Precipitation 0.07 in - - ()
Sea Level Pressure  
Sea Level Pressure 30.14 in    
Wind  
Wind Speed 6 mph ()    
Max Wind Speed 22 mph    
Max Gust Speed 29 mph    
Visibility 10.0 miles    
Events Rain , Thunderstorm    
Averages and records for this station are not official NWS values.
T = Trace of Precipitation, MM = Missing Value Source: Averaged Metar Reports

Daily Weather History Graph

Daily Weather History Graph

Search for Another Location

Airport or City:

Trip Planner

Search our weather history database for the weather conditions in past years. The results will help you decide how hot, cold, wet, or windy it might be!

Date:

Astronomy

Jul. 23, 2012 Rise Set
Actual Time 6:23 AM MDT 8:18 PM MDT
Civil Twilight 5:56 AM MDT 8:45 PM MDT
Nautical Twilight 5:23 AM MDT 9:18 PM MDT
Astronomical Twilight 4:48 AM MDT 9:53 PM MDT
Moon 10:57 AM MDT (7/23) 10:57 PM MDT (7/23)
Length of Visible Light 14h 48m
Length of Day
13h 54m
Waxing Crescent, 22% of the Moon is Illuminated
Jul 23
Waxing Crescent
Jul 26
First Quarter
Aug 1
Full
Aug 9
Last Quarter
Aug 17
New

Hourly Weather History & Observations

Time (MDT) Temp. Heat Index Dew Point Humidity Pressure Visibility Wind Dir Wind Speed Gust Speed Precip Events Conditions
12:15 AM 78.8 °F - 59.0 °F 51% 30.18 in 10.0 mi Calm Calm - N/A   Scattered Clouds
12:35 AM 77.0 °F - 59.0 °F 54% 30.17 in 10.0 mi WNW 3.5 mph - N/A   Clear
12:55 AM 77.0 °F - 59.0 °F 54% 30.16 in 10.0 mi NW 3.5 mph - N/A   Clear
1:15 AM 77.0 °F - 59.0 °F 54% 30.16 in 10.0 mi West 3.5 mph - N/A   Clear
1:35 AM 77.0 °F - 57.2 °F 50% 30.16 in 10.0 mi NW 3.5 mph - N/A   Clear
1:55 AM 75.2 °F - 59.0 °F 57% 30.16 in 10.0 mi WNW 5.8 mph - N/A   Clear
2:15 AM 73.4 °F - 57.2 °F 57% 30.15 in 10.0 mi West 5.8 mph - N/A   Clear
2:35 AM 71.6 °F - 57.2 °F 60% 30.15 in 10.0 mi West 5.8 mph - N/A   Clear
2:55 AM 71.6 °F - 59.0 °F 64% 30.15 in 10.0 mi WNW 5.8 mph - N/A   Clear
3:15 AM 71.6 °F - 60.8 °F 69% 30.15 in 10.0 mi WNW 6.9 mph - N/A   Clear
3:35 AM 71.6 °F - 60.8 °F 69% 30.14 in 10.0 mi NW 5.8 mph - N/A   Clear
3:55 AM 69.8 °F - 59.0 °F 68% 30.14 in 10.0 mi WNW 5.8 mph - N/A   Clear
4:15 AM 69.8 °F - 59.0 °F 68% 30.14 in 10.0 mi West 5.8 mph - N/A   Clear
4:35 AM 69.8 °F - 59.0 °F 68% 30.14 in 10.0 mi West 6.9 mph - N/A   Clear
4:55 AM 69.8 °F - 59.0 °F 68% 30.14 in 10.0 mi West 6.9 mph - N/A   Clear
5:15 AM 69.8 °F - 57.2 °F 64% 30.14 in 10.0 mi West 8.1 mph - N/A   Clear
5:35 AM 69.8 °F - 57.2 °F 64% 30.14 in 10.0 mi West 6.9 mph - N/A   Clear
5:55 AM 69.8 °F - 59.0 °F 68% 30.14 in 10.0 mi West 6.9 mph - N/A   Clear
6:15 AM 69.8 °F - 59.0 °F 68% 30.16 in 10.0 mi Calm Calm - N/A   Clear
6:35 AM 66.2 °F - 57.2 °F 73% 30.16 in 10.0 mi Calm Calm - N/A   Clear
6:55 AM 64.4 °F - 57.2 °F 77% 30.17 in 10.0 mi SSE 4.6 mph - N/A   Clear
7:15 AM 68.0 °F - 59.0 °F 73% 30.17 in 10.0 mi SSW 3.5 mph - N/A   Clear
7:35 AM 71.6 °F - 57.2 °F 60% 30.17 in 10.0 mi WNW 5.8 mph - N/A   Clear
7:55 AM 73.4 °F - 57.2 °F 57% 30.18 in 10.0 mi NW 4.6 mph - N/A   Clear
8:15 AM 73.4 °F - 57.2 °F 57% 30.18 in 10.0 mi NW 5.8 mph - N/A   Clear
8:35 AM 75.2 °F - 57.2 °F 53% 30.18 in 10.0 mi West 5.8 mph - N/A   Clear
8:55 AM 77.0 °F - 57.2 °F 50% 30.19 in 10.0 mi West 5.8 mph - N/A   Clear
9:15 AM 78.8 °F - 55.4 °F 44% 30.18 in 10.0 mi NW 5.8 mph - N/A   Clear
9:35 AM 80.6 °F 80.8 °F 57.2 °F 45% 30.17 in 10.0 mi NW 5.8 mph - N/A   Clear
9:55 AM 80.6 °F 80.5 °F 55.4 °F 42% 30.17 in 10.0 mi NNW 6.9 mph - N/A   Clear
10:15 AM 82.4 °F 81.7 °F 55.4 °F 39% 30.17 in 10.0 mi Calm Calm - N/A   Clear
10:35 AM 84.2 °F 83.0 °F 55.4 °F 37% 30.16 in 10.0 mi NNE 3.5 mph - N/A   Clear
10:55 AM 86.0 °F 84.5 °F 55.4 °F 35% 30.16 in 10.0 mi Calm Calm - N/A   Clear
11:15 AM 86.0 °F 84.5 °F 55.4 °F 35% 30.16 in 10.0 mi NNW 3.5 mph - N/A   Clear
11:35 AM 87.8 °F 85.7 °F 53.6 °F 31% 30.15 in 10.0 mi Calm Calm - N/A   Clear
11:55 AM 87.8 °F 85.7 °F 53.6 °F 31% 30.15 in 10.0 mi Calm Calm - N/A   Clear
12:15 PM 89.6 °F - 51.8 °F 27% 30.14 in 10.0 mi SSE 6.9 mph - N/A   Clear
12:35 PM 91.4 °F - 51.8 °F 26% 30.13 in 10.0 mi SSE 8.1 mph - N/A   Clear
12:55 PM 91.4 °F - 51.8 °F 26% 30.12 in 10.0 mi SE 6.9 mph 18.4 mph N/A   Clear
1:15 PM 95.0 °F - 51.8 °F 23% 30.12 in 10.0 mi South 10.4 mph 17.3 mph N/A   Clear
1:35 PM 95.0 °F - 51.8 °F 23% 30.11 in 10.0 mi South 6.9 mph - N/A   Clear
1:55 PM 95.0 °F - 51.8 °F 23% 30.10 in 10.0 mi South 10.4 mph 19.6 mph N/A   Clear
2:15 PM 96.8 °F - 51.8 °F 22% 30.09 in 10.0 mi SSW 8.1 mph - N/A   Scattered Clouds
2:35 PM 93.2 °F - 51.8 °F 24% 30.09 in 10.0 mi South 8.1 mph - N/A   Scattered Clouds
2:55 PM 96.8 °F - 48.2 °F 19% 30.08 in 10.0 mi SSW 8.1 mph 16.1 mph N/A   Clear
3:15 PM 96.8 °F - 46.4 °F 18% 30.07 in 10.0 mi SSW 11.5 mph 17.3 mph N/A   Scattered Clouds
3:35 PM 96.8 °F - 46.4 °F 18% 30.06 in 10.0 mi SE 5.8 mph 9.2 mph N/A   Scattered Clouds
3:55 PM 91.4 °F - 51.8 °F 26% 30.06 in 10.0 mi East 20.7 mph 28.8 mph N/A   Scattered Clouds
4:15 PM 84.2 °F 83.8 °F 59.0 °F 42% 30.07 in 7.0 mi North - - 0.02 in Rain Rain
4:35 PM 80.6 °F 81.1 °F 59.0 °F 48% 30.11 in 10.0 mi NNW 8.1 mph 11.5 mph 0.03 in Rain Rain
4:55 PM 77.0 °F - 60.8 °F 57% 30.11 in 10.0 mi North 19.6 mph 23.0 mph 0.05 in Rain , Thunderstorm Rain
5:15 PM 77.0 °F - 59.0 °F 54% 30.10 in 10.0 mi North - - N/A Rain Light Rain
5:35 PM 77.0 °F - 60.8 °F 57% 30.10 in 10.0 mi ENE 6.9 mph - N/A   Overcast
5:55 PM 78.8 °F - 55.4 °F 44% 30.10 in 10.0 mi South 21.9 mph 25.3 mph N/A Rain Light Rain
6:15 PM 77.0 °F - 55.4 °F 47% 30.10 in 10.0 mi SE 17.3 mph - N/A Rain Light Rain
6:35 PM 73.4 °F - 59.0 °F 61% 30.08 in 10.0 mi ESE 15.0 mph - 0.01 in Rain Light Rain
6:55 PM 75.2 °F - 57.2 °F 53% 30.06 in 10.0 mi East 17.3 mph - 0.02 in   Overcast
7:15 PM 77.0 °F - 57.2 °F 50% 30.08 in 10.0 mi ENE 4.6 mph 10.4 mph N/A   Mostly Cloudy
7:35 PM 77.0 °F - 60.8 °F 57% 30.10 in 10.0 mi SW 8.1 mph - N/A   Scattered Clouds
7:55 PM 77.0 °F - 60.8 °F 57% 30.12 in 10.0 mi WSW 5.8 mph - N/A   Scattered Clouds
8:15 PM 77.0 °F - 59.0 °F 54% 30.13 in 10.0 mi WNW 5.8 mph - N/A   Mostly Cloudy
8:35 PM 77.0 °F - 60.8 °F 57% 30.15 in 10.0 mi WNW 6.9 mph - N/A   Mostly Cloudy
8:55 PM 77.0 °F - 60.8 °F 57% 30.18 in 10.0 mi NW 5.8 mph - N/A   Overcast
9:15 PM 75.2 °F - 60.8 °F 61% 30.19 in 10.0 mi NW 13.8 mph 17.3 mph N/A   Overcast
9:35 PM 73.4 °F - 60.8 °F 65% 30.18 in 10.0 mi NNW 16.1 mph 21.9 mph N/A   Overcast
9:55 PM 71.6 °F - 60.8 °F 69% 30.19 in 10.0 mi NW 10.4 mph - N/A   Mostly Cloudy
10:15 PM 71.6 °F - 60.8 °F 69% 30.19 in 10.0 mi NNW 6.9 mph - N/A   Scattered Clouds
10:35 PM 71.6 °F - 62.6 °F 73% 30.20 in 10.0 mi WNW 6.9 mph - N/A   Clear
10:55 PM 69.8 °F - 62.6 °F 78% 30.21 in 10.0 mi NW 10.4 mph 20.7 mph N/A   Scattered Clouds
11:15 PM 69.8 °F - 62.6 °F 78% 30.21 in 10.0 mi NNW 9.2 mph - N/A   Clear
11:35 PM 69.8 °F - 62.6 °F 78% 30.20 in 10.0 mi NNW 9.2 mph - N/A   Clear
11:55 PM 69.8 °F - 62.6 °F 78% 30.19 in 10.0 mi North 10.4 mph - N/A   Clear